Probability
2 1 2 2 3 5 4 1 1 2 5 7 7 5 3 2 2 3 3 3 2 3 4 6 7 7 5 4 3 3 3 2 1 0 0 0 0 0 0 0 0 0 0
1 2 2 3 4 5 4 2 1 1 3 4 5 5 4 4 4 3 3 4 4 5 6 6 6 7 6 5 4 3 3 3 3 1 1 1 0 0 0 0 0 0 0
1 2 3 3 3 4 4 2 1 0 2 3 3 3 3 3 3 3 3 4 5 5 5 5 5 6 7 6 4 2 1 2 3 2 2 1 1 0 0 0 0 0 0
1 2 2 2 3 3 3 2 1 1 2 2 1 1 1 1 1 2 3 4 5 3 2 3 4 6 6 5 3 2 1 1 1 1 1 1 1 1 0 0 0 0 1
1 1 1 1 2 2 2 1 0 1 1 1 0 0 0 0 1 2 3 3 3 1 0 1 3 4 4 3 2 3 3 3 1 1 1 1 2 1 0 0 0 0 1
1 0 0 0 1 1 1 0 0 0 0 0 0 0 0 0 0 1 1 1 1 1 0 0 1 2 1 1 1 2 3 4 3 3 2 3 3 2 0 0 0 0 1
0 0 0 0 0 0 0 0 0 0 0 0 0 0 0 0 0 0 0 0 1 1 1 0 0 0 0 0 0 0 2 3 4 4 3 3 3 2 0 0 0 0 0
0 0 0 0 0 0 0 0 0 0 0 0 0 0 0 0 0 0 0 0 1 1 1 0 0 0 0 0 0 0 2 3 4 3 3 3 3 2 1 0 0 0 0
0 0 0 0 0 0 0 0 0 0 0 0 0 0 0 0 0 0 0 0 0 0 0 0 0 0 0 0 0 1 2 3 2 2 2 2 4 4 3 1 0 0 0
0 0 0 0 0 0 0 0 0 0 0 0 0 1 1 1 0 0 0 0 0 0 0 0 0 0 0 0 0 0 1 1 1 1 0 1 3 5 4 3 1 0 0
0 0 0 0 0 0 0 0 0 0 0 0 0 1 2 1 0 0 0 0 0 0 0 0 0 0 0 0 0 0 0 0 0 0 0 0 2 3 4 3 2 1 0
0 0 0 0 0 0 0 0 0 0 0 0 0 1 1 1 0 0 1 0 0 0 0 0 0 0 0 0 0 0 0 0 0 0 0 0 0 1 2 2 2 1 0
0 0 0 0 0 0 0 0 0 0 0 0 0 0 0 0 0 0 0 0 0 0 0 0 0 0 0 0 0 0 0 0 0 0 0 0 0 0 1 1 1 0 0
0 0 0 0 0 0 0 0 0 0 0 0 0 0 0 0 0 0 0 0 0 0 0 0 0 0 0 0 0 0 0 0 0 0 0 0 0 0 0 0 0 0 0
0 0 0 0 0 0 0 0 0 0 0 0 0 0 0 0 0 0 0 0 0 0 0 0 0 0 0 0 0 0 0 0 0 0 0 0 0 0 0 0 0 0 0
0 0 0 0 0 0 0 0 0 0 0 0 0 0 0 0 0 0 0 0 0 0 0 0 0 0 0 0 0 0 0 0 0 0 0 0 0 0 0 0 0 0 0
0 0 0 0 0 0 0 0 0 0 0 0 0 0 0 0 0 0 0 0 0 0 0 0 0 0 0 0 0 0 0 0 0 0 0 0 0 0 0 0 0 0 0
0 0 0 0 0 0 0 0 0 0 0 0 0 0 0 0 0 0 0 0 0 0 0 0 0 0 0 0 0 0 0 0 0 0 0 0 0 0 0 0 0 0 0
0 0 0 0 0 0 0 0 0 0 0 0 0 0 0 0 0 0 0 0 0 0 0 0 0 0 0 0 0 0 0 0 0 0 0 0 0 0 0 0 0 0 0
0 0 0 0 0 0 0 0 0 0 0 0 0 0 0 0 0 0 0 0 0 0 0 0 0 0 0 0 0 0 0 0 0 0 0 0 0 0 0 0 0 0 0
0 0 0 0 0 0 0 0 0 0 0 0 0 0 0 0 0 0 0 0 0 0 0 0 0 0 0 0 0 0 0 0 0 0 0 0 0 0 0 0 0 0 0
0 0 0 0 0 0 0 0 0 0 0 0 0 0 0 0 0 0 0 0 0 0 0 0 0 0 0 0 0 0 0 0 0 0 0 0 0 0 0 0 0 0 0
0 0 0 0 0 0 0 0 0 0 0 0 0 0 0 0 0 0 0 0 0 0 0 0 0 0 0 0 0 0 0 0 0 0 0 0 0 0 0 0 0 0 0
0 0 0 0 0 0 0 0 0 0 0 0 0 0 0 0 0 0 0 0 0 0 0 0 0 0 0 0 0 0 0 0 0 0 0 0 0 0 0 0 0 0 0
0 0 0 0 0 0 0 0 0 0 0 0 0 0 0 0 0 0 0 0 0 0 0 0 0 0 0 0 0 0 0 0 0 0 0 0 0 0 0 0 0 0 0
0 0 0 0 0 0 0 0 0 0 0 0 0 0 0 0 0 0 0 0 0 0 0 0 0 0 0 0 0 0 0 0 0 0 0 0 0 0 0 0 0 0 0
Wind_Speed
0 0 0 1 1 0 0 0 1 1 1 1 1 1 1 1 1 1 1 3 3 4 4 5 6 6 6 7 6 6 7 8 8 8 8 8 8 9 10 11 11 11 11
1 0 1 1 1 1 0 1 0 1 1 1 1 1 1 0 0 0 1 2 3 3 2 3 3 3 4 5 5 5 6 7 7 8 8 7 8 8 9 9 10 11 10
1 1 0 1 1 1 1 1 1 0 1 1 0 0 1 1 1 1 2 1 2 3 3 2 2 1 2 3 4 5 5 5 6 6 6 7 7 8 9 9 10 10 10
1 1 1 1 1 1 0 0 0 0 0 0 0 1 1 1 2 2 2 2 2 2 3 4 3 3 3 3 3 3 3 4 5 5 6 6 6 7 7 8 9 9 10
1 1 1 1 1 1 1 0 0 1 1 1 1 1 1 2 2 3 3 3 3 3 2 3 4 5 4 5 5 4 3 3 3 4 4 5 6 7 7 7 8 9 9
2 2 1 1 1 1 1 1 0 0 1 1 1 2 2 2 2 3 3 3 3 3 3 3 3 4 6 6 6 5 5 4 3 2 3 3 4 5 6 6 7 8 9
3 2 2 2 1 1 1 1 0 1 0 1 1 1 2 3 3 3 2 3 3 4 4 4 3 3 3 6 7 6 6 6 5 3 3 2 2 2 4 5 6 7 8
4 3 3 2 2 1 2 2 1 1 0 0 1 1 1 1 2 3 2 3 3 3 4 4 3 3 3 3 5 6 6 5 5 4 4 3 1 2 3 5 6 7 7
4 3 3 2 2 2 2 2 2 1 0 0 0 1 2 2 1 1 2 2 2 2 2 3 4 4 4 3 4 6 7 6 6 5 5 4 2 1 2 3 4 5 6
4 4 4 3 3 2 2 2 2 1 1 0 1 1 0 1 2 1 0 1 2 2 2 2 3 3 4 3 4 6 8 7 8 7 7 7 5 3 1 1 2 4 5
4 4 3 3 3 2 2 2 2 1 0 1 0 0 1 1 1 2 1 0 1 1 2 2 2 2 3 3 3 5 7 7 8 8 8 8 7 4 3 1 1 3 4
3 4 3 3 3 2 2 2 2 1 1 1 0 0 1 1 1 1 2 1 0 1 1 1 1 2 2 3 3 6 7 8 8 8 8 8 7 7 5 4 2 2 3
2 3 3 3 2 2 2 2 2 2 2 1 0 0 0 0 1 1 2 2 1 0 1 1 1 1 2 2 3 6 6 8 8 8 8 8 7 7 7 7 6 4 2
1 2 3 3 3 3 3 3 2 2 2 1 2 1 1 1 0 1 2 2 1 0 0 0 1 1 2 2 3 4 4 6 7 7 8 8 8 7 7 6 7 7 6
1 2 3 3 4 4 4 3 2 2 2 2 2 2 1 1 1 0 1 2 2 2 1 0 0 1 1 1 3 2 2 5 6 6 7 7 7 7 7 7 7 7 7
2 3 3 3 3 4 4 3 2 3 3 3 2 2 2 1 1 0 1 1 1 2 1 1 1 0 1 1 2 2 2 4 4 5 5 6 6 7 7 7 7 7 6
3 3 3 3 3 3 3 3 3 3 3 3 3 2 2 1 1 1 0 1 1 1 2 0 0 0 0 1 1 1 1 1 2 4 4 5 5 6 6 6 6 6 5
3 3 3 3 3 4 3 3 3 3 3 3 3 3 3 2 2 1 1 1 1 1 2 2 1 0 0 0 0 1 1 1 1 2 3 4 4 4 5 5 5 4 4
3 3 3 3 3 3 3 3 3 3 2 2 2 2 2 2 2 1 1 1 1 1 1 2 1 0 0 0 1 1 1 1 1 1 1 2 3 3 3 3 4 4 3
3 3 3 2 2 2 3 3 3 3 3 3 3 2 2 2 1 1 1 1 1 2 2 2 2 1 1 0 0 0 1 1 1 1 2 2 2 2 2 2 2 2 2
3 3 3 3 3 2 2 3 2 2 3 3 3 3 2 3 2 1 1 1 2 2 2 2 2 1 1 1 1 0 0 1 1 1 1 1 1 1 2 2 2 2 2
3 3 3 3 4 3 4 4 2 2 2 3 3 4 3 3 4 4 3 2 1 3 3 2 2 2 2 2 1 1 1 0 1 1 1 1 1 1 2 1 2 3 3
3 3 3 3 3 4 5 4 4 2 2 2 3 3 3 3 3 3 4 4 3 2 2 3 3 2 2 3 2 2 1 1 1 1 0 1 1 2 2 2 3 4 3
2 2 3 3 3 4 5 4 4 3 2 2 2 2 2 2 2 3 3 3 3 2 0 1 3 3 2 3 3 2 1 1 1 1 1 1 1 2 2 2 3 4 4
2 2 2 3 3 4 6 4 3 2 2 3 3 2 2 2 3 2 2 2 2 2 1 0 1 2 3 3 3 2 2 1 1 1 1 1 1 2 2 3 3 4 5
1 2 2 3 3 4 5 4 3 1 2 2 3 3 3 3 3 2 1 0 1 1 2 2 2 2 0 1 3 4 3 2 1 1 2 2 1 1 2 2 2 3 3
Wind_Direction
261 348 339 345 332 2 24 270 270 278 269 259 253 246 257 258 263 267 297 300 297 276 251 240 238 238 239 236 230 226 228 229 231 225 221 222 224 224 220 218 216 214 211
116 63 10 9 348 349 344 282 265 291 274 247 259 283 293 199 1 315 330 335 338 332 314 273 256 252 253 243 238 235 231 227 228 227 224 221 220 220 218 218 216 213 209
97 96 56 354 329 346 0 351 17 47 271 255 291 53 69 78 70 40 27 18 3 6 3 358 347 304 293 278 253 245 240 236 231 227 224 223 223 223 219 219 216 212 209
78 99 64 351 333 345 16 68 61 91 285 346 6 26 48 69 66 56 47 38 32 14 5 14 20 14 354 343 326 290 269 257 247 240 233 229 226 223 220 219 216 213 210
27 59 45 351 339 9 7 352 44 194 161 106 77 61 43 54 53 55 50 41 41 34 18 11 21 27 23 13 360 343 317 298 268 258 251 242 234 225 222 220 217 214 211
24 36 25 340 353 31 17 24 18 323 135 129 108 77 58 55 57 55 48 41 42 44 36 26 19 14 18 17 8 355 347 336 317 294 279 266 247 231 221 216 215 216 214
24 30 15 5 6 18 353 359 104 51 66 119 111 91 64 60 59 53 51 46 43 42 41 34 23 17 6 10 11 10 1 357 355 347 327 310 290 250 227 220 217 217 216
21 30 26 14 6 18 16 14 29 41 278 127 133 139 132 61 48 42 46 51 40 37 39 34 29 23 14 4 3 8 8 7 5 6 2 357 335 267 244 229 223 223 216
27 27 27 23 22 30 15 1 9 12 232 334 80 160 167 185 126 41 40 48 42 38 31 24 26 19 17 10 354 6 18 19 24 28 28 20 9 325 258 236 226 218 213
26 30 26 24 20 24 19 359 9 348 136 187 328 355 114 141 156 145 55 37 45 42 27 24 15 14 17 8 1 17 27 32 37 36 35 33 35 32 20 229 225 223 216
17 21 22 17 12 12 12 10 7 17 59 136 175 345 60 63 115 159 180 171 31 24 20 19 10 10 11 5 1 25 34 36 39 38 36 34 32 34 40 41 242 237 230
5 8 14 12 11 6 1 358 360 11 14 74 83 147 168 172 171 165 164 159 153 4 4 15 14 9 3 5 19 34 37 37 37 35 35 34 32 33 34 34 13 268 245
352 347 2 9 3 355 357 5 18 15 15 33 7 313 263 266 172 157 148 144 126 60 350 18 2 4 15 14 21 34 38 37 35 34 36 37 35 35 40 40 37 36 33
328 341 7 16 11 10 17 23 29 17 23 28 23 29 32 351 47 144 151 149 137 137 84 356 356 9 17 18 25 29 32 35 35 37 39 39 38 38 42 44 42 46 51
359 13 22 28 19 17 19 27 33 18 25 28 25 37 34 6 19 86 142 161 157 167 206 214 320 350 2 25 24 27 26 30 34 35 39 39 40 42 45 47 48 49 52
18 21 24 30 24 18 16 24 19 16 38 27 26 43 36 6 13 44 149 161 158 157 167 189 210 290 335 36 44 27 21 27 30 30 37 40 42 43 44 45 46 48 49
18 20 21 28 26 20 16 28 25 24 33 24 23 32 19 6 14 19 97 128 127 141 152 182 212 251 11 50 22 7 5 14 16 22 28 37 42 41 40 38 39 43 47
18 19 24 26 19 19 18 28 24 24 27 21 15 18 4 12 24 31 83 115 127 137 150 162 167 145 95 228 343 341 354 14 360 10 26 34 36 37 38 33 29 29 31
17 20 26 28 17 14 17 23 27 28 26 19 17 17 5 27 30 27 54 92 115 118 138 150 151 133 105 39 17 8 8 2 351 5 27 36 30 26 26 21 20 21 22
19 16 19 22 19 19 20 20 20 28 28 23 24 25 18 24 25 35 63 95 123 118 125 134 140 135 136 71 107 41 2 0 353 5 15 7 4 1 6 0 359 1 0
24 19 21 22 18 20 17 15 17 28 31 34 30 22 18 32 37 35 92 138 139 134 136 141 146 150 162 165 190 200 253 338 333 1 345 350 342 338 338 335 330 326 314
20 24 26 23 15 11 8 18 32 42 36 41 28 15 18 36 37 37 45 58 142 159 157 155 161 174 196 190 182 178 163 37 314 9 333 324 343 313 309 302 305 301 297
21 20 16 22 12 1 6 20 31 60 53 40 25 10 13 20 26 35 35 40 49 78 159 172 178 198 197 192 180 184 190 212 244 268 285 299 312 290 288 291 296 295 284
17 6 5 2 4 3 7 17 33 58 53 32 18 2 358 353 10 24 32 29 26 30 54 190 207 223 226 212 198 193 191 217 260 237 217 272 298 287 294 285 273 275 278
12 3 353 356 1 357 4 10 31 50 39 14 2 355 348 354 357 27 52 33 16 6 17 358 222 229 233 216 183 157 162 177 258 247 193 239 278 296 290 281 268 266 272
5 6 8 357 357 352 353 9 27 49 31 3 352 346 347 351 355 15 58 89 4 326 354 11 23 16 2 189 182 189 189 190 217 261 195 209 245 294 296 277 279 281 274